Regional Weather Roundup
Issued by NWS

Home | Current Version | Previous Version | Text Only | Print | Product List | Glossary On
Versions: 1 2 3 4 5 6 7 8 9 10 11 12 13 14 15 16 17 18 19 20 21 22 23 24 25 26 27 28 29 30 31 32 33 34 35 36 37 38 39 40 41 42 43 44 45 46 47 48 49 50
000
ASUS43 KLMK 202310
RWRKY
KENTUCKY REGIONAL WEATHER ROUNDUP
NATIONAL WEATHER SERVICE LOUISVILLE KY
700 PM EDT THU JUL 20 2017

NOTE "FAIR" INDICATES FEW OR NO CLOUDS BELOW 12,000 FEET
WITH NO SIGNIFICANT WEATHER AND/OR OBSTRUCTIONS TO VISIBILITY.

KYZ001>023-026-027-061>063-070>075-210000-
WESTERN AND SOUTH CENTRAL KENTUCKY

CITY           SKY/WX    TMP DP  RH WIND       PRES   REMARKS
PADUCAH        CLOUDY    92  74  55 SW6       30.00F HX 101
HENDERSON      MOSUNNY   91  76  61 SW6       30.00F HX 103
OWENSBORO      PTSUNNY   91  75  59 SW9       30.00F HX 101
HOPKINSVILLE   MOSUNNY   90  72  55 SW8       30.02F HX  97
BOWLING GREEN  MOSUNNY   92  74  55 W6        30.02F HX 101
GLASGOW        MOSUNNY   91  70  49 W6        30.03S HX  96
$$

KYZ024-025-028>034-038-045-046-053-210000-
NORTH CENTRAL KENTUCKY

CITY           SKY/WX    TMP DP  RH WIND       PRES   REMARKS
LOUISVILLE/SDF PTSUNNY   92  72  51 W13       29.99F HX  99
LOUISVILLE/LOU MOSUNNY   91  72  53 SW13      30.00S HX  98
FORT KNOX      PTSUNNY   88  73  60 SW8       30.00F HX  96
$$

KYZ035>037-039>044-047>052-055>060-089>105-210000-
NORTHEAST KENTUCKY

CITY           SKY/WX    TMP DP  RH WIND       PRES   REMARKS
LEXINGTON      CLOUDY    90  71  53 SW7       30.04S HX  96
COVINGTON      PTSUNNY   88  75  65 W9        30.01F HX  97
FRANKFORT      CLOUDY    90  71  53 W5        30.02S HX  96
$$

KYZ054-064>069-076>088-106>120-210000-
SOUTHEAST KENTUCKY

CITY           SKY/WX    TMP DP  RH WIND       PRES   REMARKS
JACKSON        CLOUDY    86  70  58 CALM      30.05F HX  90
LONDON         CLOUDY    87  70  56 W5        30.05F HX  92
SOMERSET       CLOUDY    86  68  54 W6        30.05S
MIDDLESBORO    CLOUDY    85  72  64 W3        30.05F HX  91
MONTICELLO     NOT AVBL
$$




USA.gov is the U.S. government's official web portal to all federal, state and local government web resources and services.